325P/Yang-Gao (2015)

Japanese version
Home page
Updated on November 3, 2015

---------------------------------------------------------------------

* Profile

Designation 325P/2015 J4
Recovery Date May 11, 2015
Magnitude 19.1 mag
Recoverer H. Sato (Tokyo, Japan)

* Pictures

* Orbital Elements

Epoch 2015 June 27.0 TT = JDT 2457200.5
T 2015 Aug. 15.13494 TT                                 MPCW
q   1.4310946            (2000.0)            P               Q
n   0.14909220     Peri.  343.56335     -0.47027512     +0.83673820
a   3.5223521      Node   257.62570     -0.77392718     -0.54379082
e   0.5937105      Incl.   16.69199     -0.42412031     +0.06450372
P   6.61
From 1063 observations 2009 June 15-2015 Sept. 6, mean residual 0".5.

* Finding Charts

* Magnitudes Graph

        m1 = 13.5 + 5 log d + 15.0 log r

---------------------------------------------------------------------

The orbital elements are published on M.P.E.C. 2015-S97.
The charts are made with StellaNavigator Ver.8 (AstroArts).
The magnitudes graphs are made with Comet for Windows.

---------------------------------------------------------------------

Copyright(C) Seiichi Yoshida (comet@aerith.net). All rights reserved.